This is the latest recevied weather packets stored in our database for station/object KC0AFB. If no packets are shown the sender has not sent any weather packets the latest 10 day(s).
| Time | Temp. | Humidity | Pressure | Rain* | Wind** | Luminosity | Snow |
|---|---|---|---|---|---|---|---|
| 1777440868 | 2.22° C | 55% | 1019.1 hPa | 0 mm | - | 0 W/m² | - |
| 1777440564 | 2.22° C | 54% | 1018.9 hPa | 0 mm | - | 0 W/m² | - |
| 1777440260 | 2.78° C | 53% | 1019.1 hPa | 0 mm | - | 0 W/m² | - |
| 1777439956 | 2.78° C | 52% | 1019.1 hPa | 0 mm | - | 0 W/m² | - |
| 1777439653 | 2.78° C | 52% | 1019.2 hPa | 0 mm | - | 0 W/m² | - |
| 1777439349 | 2.78° C | 52% | 1019.3 hPa | 0 mm | - | 0 W/m² | - |
| 1777439044 | 2.78° C | 53% | 1019.2 hPa | 0 mm | - | 0 W/m² | - |
| 1777438742 | 2.78° C | 52% | 1019.1 hPa | 0 mm | - | 0 W/m² | - |
| 1777438438 | 2.78° C | 53% | 1019.2 hPa | 0 mm | - | 0 W/m² | - |
| 1777438134 | 2.78° C | 53% | 1019.2 hPa | 0 mm | - | 0 W/m² | - |
| 1777437829 | 2.78° C | 53% | 1019.2 hPa | 0 mm | - | 0 W/m² | - |
| 1777437525 | 2.78° C | 52% | 1019 hPa | 0 mm | - | 0 W/m² | - |
| 1777437223 | 2.78° C | 52% | 1019 hPa | 0 mm | - | 0 W/m² | - |
| 1777436919 | 2.78° C | 51% | 1019.3 hPa | 0 mm | - | 0 W/m² | - |
| 1777436617 | 2.78° C | 54% | 1019.2 hPa | 0 mm | - | 0 W/m² | - |
| 1777436313 | 2.22° C | 55% | 1019.1 hPa | 0 mm | - | 0 W/m² | - |
| 1777436009 | 2.22° C | 56% | 1019.3 hPa | 0 mm | - | 0 W/m² | - |
| 1777435705 | 2.22° C | 54% | 1019.3 hPa | 0 mm | - | 0 W/m² | - |
| 1777435401 | 2.78° C | 54% | 1019.3 hPa | 0 mm | - | 0 W/m² | - |
| 1777435096 | 3.33° C | 51% | 1019.3 hPa | 0 mm | - | 0 W/m² | - |
| 1777434792 | 3.33° C | 50% | 1019.1 hPa | 0 mm | - | 0 W/m² | - |
| 1777434491 | 3.33° C | 50% | 1019.2 hPa | 0 mm | - | 0 W/m² | - |
| 1777434189 | 3.89° C | 51% | 1019.2 hPa | 0 mm | - | 0 W/m² | - |
| 1777433886 | 4.44° C | 49% | 1019 hPa | 0 mm | - | 0 W/m² | - |
| 1777433583 | 5° C | 47% | 1019.1 hPa | 0 mm | - | 0 W/m² | - |
* Rain latest hour (hover to see other rain measurements)
** Current wind speed in m/s (hover to see current wind gust speed)